Weather History for Elizabethtown, NC

Change the Weather History Date:

Friday, January 18, 2013

  Actual Average (KILM) Record (KILM)
Temperature  
Mean Temperature 42 °F 46 °F  
Max Temperature 51 °F 56 °F 76 °F (1937)
Min Temperature 32 °F 36 °F 17 °F (1959)
Degree Days  
Heating Degree Days 24 19  
Month to date heating degree days 342  
Since 1 July heating degree days 1226  
Cooling Degree Days 0 0  
Month to date cooling degree days 0  
Year to date cooling degree days 0  
Moisture  
Dew Point 31 °F    
Average Humidity 71    
Maximum Humidity 99    
Minimum Humidity 33    
Precipitation  
Precipitation 0.02 in 0.11 in 3.84 in (1915)
Month to date precipitation 2.17  
Year to date precipitation 2.17  
Snow  
Snow 0.00 in 0.00 in 1.10 in (2000)
Month to date snowfall 0.3  
Since 1 July snowfall 1.1  
Snow Depth -    
Sea Level Pressure  
Sea Level Pressure 30.39 in    
Wind  
Wind Speed 5 mph (North)    
Max Wind Speed 10 mph    
Max Gust Speed 18 mph    
Visibility 10 miles    
Events Rain    
T = Trace of Precipitation, MM = Missing Value Source: NWS Daily Summary

Daily Weather History Graph

Daily Weather History Graph

Search for Another Location

Airport:

Trip Planner

Search our weather history database for the weather conditions in past years. The results will help you decide how hot, cold, wet, or windy it might be!

Date:

Astronomy

Jan. 18, 2013 Rise Set
Actual Time 7:19 AM EST 5:30 PM EST
Civil Twilight 6:52 AM EST 5:57 PM EST
Nautical Twilight 6:21 AM EST 6:28 PM EST
Astronomical Twilight 5:51 AM EST 6:58 PM EST
Moon 11:18 AM EST (1/18) No Moon Set
Length of Visible Light 11h 04m
Length of Day
10h 10m
Waxing Crescent, 47% of the Moon is Illuminated
Jan 18
Waxing Crescent
Jan 18
First Quarter
Jan 26
Full
Feb 3
Last Quarter
Feb 10
New

Hourly Weather History & Observations

Time (EST) Temp. Windchill Dew Point Humidity Pressure Visibility Wind Dir Wind Speed Gust Speed Precip Events Conditions
12:15 AM 40.8 °F 36.2 °F 39.9 °F 97% 30.08 in 7.0 mi North 6.9 mph - 0.01 in Rain Light Rain
12:35 AM 40.1 °F 34.7 °F 39.2 °F 97% 30.10 in 10.0 mi North 8.1 mph - 0.02 in Rain Light Rain
12:55 AM 40.1 °F 34.7 °F 38.7 °F 95% 30.12 in 10.0 mi NNW 8.1 mph 17.3 mph 0.02 in Rain Light Rain
1:15 AM 39.4 °F 32.7 °F 38.1 °F 95% 30.14 in 10.0 mi North 10.4 mph 18.4 mph N/A Rain Rain
1:35 AM 38.5 °F 33.4 °F 37.0 °F 95% 30.13 in 10.0 mi North 6.9 mph - N/A   Overcast
1:55 AM 38.3 °F 33.9 °F 36.7 °F 94% 30.13 in 10.0 mi North 5.8 mph - N/A   Overcast
2:15 AM 38.3 °F 33.9 °F 36.9 °F 95% 30.16 in 10.0 mi NNW 5.8 mph - N/A   Overcast
2:35 AM 38.3 °F 32.5 °F 36.9 °F 95% 30.19 in 10.0 mi NNW 8.1 mph - N/A   Overcast
2:55 AM 38.3 °F 32.5 °F 37.0 °F 95% 30.23 in 10.0 mi NNW 8.1 mph - N/A   Overcast
3:15 AM 38.3 °F 32.5 °F 36.5 °F 93% 30.24 in 10.0 mi NNW 8.1 mph - N/A   Overcast
3:35 AM 38.3 °F 34.8 °F 36.5 °F 93% 30.24 in 10.0 mi North 4.6 mph - N/A   Overcast
3:55 AM 38.3 °F 34.8 °F 36.5 °F 93% 30.24 in 10.0 mi NNW 4.6 mph - N/A   Overcast
4:15 AM 37.4 °F 34.9 °F 36.0 °F 95% 30.25 in 10.0 mi North 3.5 mph - N/A   Overcast
4:35 AM 37.4 °F 33.8 °F 35.8 °F 94% 30.26 in 10.0 mi NNW 4.6 mph - N/A   Overcast
4:55 AM 36.7 °F 32.9 °F 35.2 °F 95% 30.26 in 10.0 mi NNW 4.6 mph - N/A   Overcast
5:15 AM 36.7 °F 34.1 °F 35.2 °F 95% 30.27 in 10.0 mi NNW 3.5 mph - N/A   Overcast
5:35 AM 36.7 °F 32.9 °F 35.2 °F 95% 30.28 in 10.0 mi NNW 4.6 mph - N/A   Overcast
5:55 AM 36.7 °F - 35.6 °F 96% 30.30 in 10.0 mi Calm Calm - N/A   Overcast
6:15 AM 36.9 °F - 35.6 °F 95% 30.30 in 10.0 mi Calm Calm - N/A   Overcast
6:35 AM 36.9 °F 34.3 °F 35.6 °F 95% 30.31 in 10.0 mi NNW 3.5 mph - N/A   Overcast
6:55 AM 36.5 °F - 35.1 °F 95% 30.32 in 10.0 mi Calm Calm - N/A   Mostly Cloudy
7:15 AM 35.8 °F - 34.7 °F 96% 30.34 in 10.0 mi Calm Calm - N/A   Scattered Clouds
7:35 AM 35.2 °F - 34.3 °F 97% 30.35 in 7.0 mi Calm Calm - N/A   Scattered Clouds
7:55 AM 35.1 °F - 34.7 °F 99% 30.37 in 7.0 mi Calm Calm - N/A   Clear
8:15 AM 35.6 °F - 35.1 °F 98% 30.39 in 10.0 mi Calm Calm - N/A   Clear
8:35 AM 36.5 °F 32.7 °F 34.7 °F 93% 30.40 in 10.0 mi NNW 4.6 mph - N/A   Clear
8:55 AM 38.1 °F 34.6 °F 34.3 °F 86% 30.42 in 10.0 mi North 4.6 mph - N/A   Clear
9:15 AM 38.3 °F 35.9 °F 33.3 °F 82% 30.44 in 10.0 mi NNW 3.5 mph - N/A   Clear
9:35 AM 40.1 °F 38.0 °F 33.1 °F 76% 30.45 in 10.0 mi North 3.5 mph - N/A   Clear
9:55 AM 40.5 °F 37.3 °F 32.4 °F 73% 30.45 in 10.0 mi North 4.6 mph - N/A   Clear
10:15 AM 41.9 °F 37.5 °F 31.8 °F 67% 30.47 in 10.0 mi North 6.9 mph - N/A   Clear
10:35 AM 43.2 °F 37.9 °F 31.5 °F 63% 30.47 in 10.0 mi North 9.2 mph - N/A   Clear
10:55 AM 43.9 °F 40.5 °F 29.8 °F 58% 30.46 in 10.0 mi North 5.8 mph - N/A   Clear
11:15 AM 45.3 °F 43.0 °F 29.8 °F 55% 30.46 in 10.0 mi NNE 4.6 mph - N/A   Clear
11:35 AM 45.9 °F 42.3 °F 29.1 °F 52% 30.45 in 10.0 mi NNE 6.9 mph - N/A   Clear
11:55 AM 46.9 °F - 27.7 °F 47% 30.45 in 10.0 mi North 5.8 mph - N/A   Clear
12:15 PM 47.5 °F - 28.4 °F 48% 30.45 in 10.0 mi NNW 4.6 mph - N/A   Clear
12:35 PM 48.6 °F - 28.2 °F 45% 30.44 in 10.0 mi North 3.5 mph - N/A   Clear
12:55 PM 49.1 °F - 26.8 °F 42% 30.43 in 10.0 mi NNE 5.8 mph - N/A   Clear
1:15 PM 49.1 °F - 26.2 °F 41% 30.43 in 10.0 mi North 5.8 mph - N/A   Clear
1:35 PM 50.2 °F - 24.1 °F 36% 30.43 in 10.0 mi NNE 6.9 mph - N/A   Clear
1:55 PM 50.9 °F - 24.1 °F 35% 30.43 in 10.0 mi North 6.9 mph - N/A   Clear
2:15 PM 50.9 °F - 24.4 °F 36% 30.43 in 10.0 mi North 6.9 mph - N/A   Clear
2:35 PM 50.9 °F - 23.2 °F 34% 30.43 in 10.0 mi North 8.1 mph - N/A   Clear
2:55 PM 50.9 °F - 22.6 °F 33% 30.43 in 10.0 mi North 4.6 mph - N/A   Clear
3:15 PM 51.1 °F - 23.7 °F 34% 30.43 in 10.0 mi North 5.8 mph - N/A   Clear
3:35 PM 50.5 °F - 22.6 °F 34% 30.44 in 10.0 mi North 5.8 mph - N/A   Clear
3:55 PM 50.5 °F - 21.9 °F 33% 30.45 in 10.0 mi NNE 3.5 mph - N/A   Clear
4:15 PM 49.8 °F - 21.7 °F 33% 30.46 in 10.0 mi North 5.8 mph - N/A   Clear
4:35 PM 50.0 °F - 23.0 °F 35% 30.46 in 10.0 mi NNE 3.5 mph - N/A   Clear
4:55 PM 48.6 °F - 23.4 °F 37% 30.47 in 10.0 mi Calm Calm - N/A   Clear
5:15 PM 47.5 °F - 23.4 °F 39% 30.48 in 10.0 mi North 3.5 mph - N/A   Clear
5:35 PM 45.5 °F - 25.2 °F 45% 30.49 in 10.0 mi Calm Calm - N/A   Clear
5:55 PM 43.7 °F - 26.2 °F 50% 30.49 in 10.0 mi Calm Calm - N/A   Clear
6:15 PM 42.1 °F - 27.0 °F 55% 30.50 in 10.0 mi Calm Calm - N/A   Clear
6:35 PM 40.5 °F - 27.7 °F 60% 30.51 in 10.0 mi Calm Calm - N/A   Clear
6:55 PM 40.6 °F - 27.7 °F 60% 30.52 in 10.0 mi Calm Calm - N/A   Clear
7:15 PM 40.3 °F - 27.5 °F 60% 30.52 in 10.0 mi Calm Calm - N/A   Clear
7:35 PM 38.5 °F - 27.5 °F 65% 30.52 in 10.0 mi Calm Calm - N/A   Clear
7:55 PM 38.3 °F - 27.7 °F 66% 30.52 in 10.0 mi Calm Calm - N/A   Clear
8:15 PM 37.0 °F - 27.7 °F 69% 30.52 in 10.0 mi Calm Calm - N/A   Clear
8:35 PM 37.0 °F - 27.5 °F 68% 30.53 in 10.0 mi Calm Calm - N/A   Clear
8:55 PM 36.1 °F - 27.7 °F 71% 30.53 in 10.0 mi Calm Calm - N/A   Clear
9:15 PM 36.1 °F - 27.9 °F 72% 30.53 in 10.0 mi Calm Calm - N/A   Clear
9:55 PM 34.7 °F - 27.7 °F 76% 30.52 in 10.0 mi Calm Calm - N/A   Clear
10:15 PM 34.3 °F - 27.5 °F 76% 30.51 in 10.0 mi Calm Calm - N/A   Clear
10:35 PM 33.8 °F - 27.5 °F 78% 30.51 in 10.0 mi Calm Calm - N/A   Clear
11:15 PM 32.9 °F - 27.9 °F 82% 30.50 in 10.0 mi Calm Calm - N/A   Clear
11:35 PM 32.5 °F - 27.3 °F 81% 30.50 in 10.0 mi Calm Calm - N/A   Clear
11:55 PM 32.0 °F - 27.7 °F 84% 30.51 in 10.0 mi Calm Calm - N/A   Clear